{"data":{"norad_id":59008,"intl_designator":"2024-036L","name":"STARLINK-31460","alt_names":[],"object_type":"PAYLOAD","status":"ACTIVE","operator":null,"country":"US","launch_date":"2024-02-23","launch_site_code":"AFWTR","launch_vehicle":null,"mission":null,"orbit_class":"UNKNOWN","rcs_meters":null,"size_class":null,"mass_kg":null,"dimensions":null,"purposes":["comms"],"wikipedia_slug":null,"has_3d_model":false,"image_url":null,"decayed_at":null,"tle_current":{"epoch":"2026-05-25T02:57:34.079040Z","epoch_age_seconds":71273,"freshness":"FRESH","line1":"1 59008U 24036L   26145.12331110 -.00000409  00000+0 -16914-5 0  9997","line2":"2 59008  53.1600  83.2410 0001167  90.4061 269.7073 15.30190995127020","mean_motion":15.30190995,"eccentricity":0.0001167,"inclination_deg":53.16,"raan_deg":83.241,"arg_perigee_deg":90.4061,"mean_anomaly_deg":269.7073,"bstar":-1.6914e-6,"rev_number":12702,"period_min":94.105899505702,"perigee_km":474.44216753375,"apogee_km":476.04174618229,"semimajor_km":6853.378956858,"source":"CELESTRAK","updated_at":"2026-05-25T13:38:18.799400Z"}}}